Casper, WY

8:10 PM MST on November 16, 2019 (GMT -0700)
Natrona County International

Weather History for KCPR - October, 2019

Change the Weather History Date:

Wednesday, October 23, 2019

  Actual Average Record
Temperature  
Mean Temperature 32 °F 43 °F  
Max Temperature 41 °F 57 °F 81 °F (2003)
Min Temperature 23 °F 29 °F 11 °F (1984)
Degree Days  
Heating Degree Days 33 22  
Month to date heating degree days 512 427  
Since 1 July heating degree days 683 712  
Cooling Degree Days 0 0  
Month to date cooling degree days 0 0  
Year to date cooling degree days 441 422  
Moisture  
Dew Point 28 °F    
Average Humidity 76    
Maximum Humidity 92    
Minimum Humidity 59    
Precipitation  
Precipitation 0.03 in 0.04 in 0.25 in (1975)
Month to date precipitation 1.01 0.85  
Year to date precipitation 11.71 11.01  
Snow  
Snow T in 0.30 in - ()
Month to date snowfall 7.6 5.1  
Since 1 July snowfall 7.6 6.9  
Since 1 September snowfall 7.6 6.9  
Snow Depth 0.00 in    
Sea Level Pressure  
Sea Level Pressure 30.21 in    
Wind  
Wind Speed 11 mph (North)    
Max Wind Speed 25 mph    
Max Gust Speed 32 mph    
Visibility 7 miles    
Events Rain , Snow    
T = Trace of Precipitation, MM = Missing Value Source: NWS Daily Summary

Daily Weather History Graph

Daily Weather History Graph

Search for Another Location

Airport or City:

Astronomy

Oct. 23, 2019 Rise Set
Actual Time 7:28 AM MDT 6:10 PM MDT
Civil Twilight 6:59 AM MDT 6:39 PM MDT
Nautical Twilight 6:26 AM MDT 7:12 PM MDT
Astronomical Twilight 5:53 AM MDT 7:45 PM MDT
Moon 1:39 AM MDT (10/23) 4:12 PM MDT (10/23)
Length of Visible Light 11h 40m
Length of Day
10h 42m
Waning Crescent, 26% of the Moon is Illuminated
Oct 23
Waning Crescent
Oct 27
New
Nov 4
First Quarter
Nov 12
Full
Nov 19
Last Quarter

Hourly Weather History & Observations

Time (MDT) Temp. Windchill Dew Point Humidity Pressure Visibility Wind Dir Wind Speed Gust Speed Precip Events Conditions
12:53 AM 36.0 °F - 33.1 °F 89% 29.96 in 10.0 mi Calm Calm - 0.00 in Rain Light Rain
1:53 AM 35.1 °F 27.4 °F 30.9 °F 85% 29.96 in 10.0 mi West 10.4 mph - 0.00 in   Overcast
2:53 AM 37.0 °F 28.1 °F 28.9 °F 73% 29.97 in 10.0 mi West 15.0 mph - N/A   Overcast
3:53 AM 35.1 °F 27.9 °F 28.0 °F 76% 29.97 in 10.0 mi WSW 9.2 mph - N/A   Overcast
4:53 AM 35.1 °F 26.4 °F 28.0 °F 76% 30.00 in 10.0 mi West 12.7 mph - N/A   Overcast
5:53 AM 34.0 °F 24.2 °F 27.0 °F 75% 30.00 in 10.0 mi West 15.0 mph - N/A   Scattered Clouds
6:53 AM 34.0 °F 23.0 °F 28.0 °F 79% 30.02 in 10.0 mi West 18.4 mph - N/A   Partly Cloudy
7:53 AM 34.0 °F 26.0 °F 28.0 °F 79% 30.05 in 10.0 mi West 10.4 mph - N/A   Mostly Cloudy
8:53 AM 36.0 °F 27.5 °F 30.0 °F 79% 30.06 in 10.0 mi West 12.7 mph - N/A   Overcast
9:53 AM 37.0 °F 28.9 °F 28.9 °F 73% 30.09 in 10.0 mi West 12.7 mph - N/A   Mostly Cloudy
10:53 AM 39.9 °F 31.4 °F 27.0 °F 60% 30.09 in 10.0 mi North 16.1 mph 21.9 mph N/A   Mostly Cloudy
11:53 AM 35.1 °F 23.0 °F 30.0 °F 82% 30.18 in 3.0 mi NNE 24.2 mph 32.2 mph 0.01 in   Haze
11:56 AM 33.1 °F 20.9 °F 28.9 °F 85% 30.15 in 1.8 mi NNE 21.9 mph 32.2 mph 0.00 in Snow Light Snow
12:03 PM 33.1 °F 20.6 °F 30.0 °F 89% 30.15 in 3.0 mi NNE 23.0 mph - 0.00 in Snow Light Snow
12:38 PM 32.0 °F 20.1 °F 28.9 °F 88% 30.17 in 0.8 mi North 19.6 mph 31.1 mph 0.00 in Snow Light Snow
12:49 PM 33.8 °F 22.5 °F 28.4 °F 81% 30.17 in 2.5 mi NNE 19.6 mph - 0.01 in Snow Light Snow
12:53 PM 34.0 °F 23.4 °F 30.0 °F 85% 30.21 in 8.0 mi North 17.3 mph - 0.01 in   Overcast
1:53 PM 36.0 °F 26.3 °F 28.9 °F 76% 30.22 in 10.0 mi NNE 16.1 mph - N/A   Overcast
2:53 PM 35.1 °F 25.9 °F 28.0 °F 76% 30.23 in 10.0 mi North 13.8 mph - N/A   Overcast
3:05 PM 34.0 °F 24.6 °F 28.0 °F 79% 30.20 in 1.8 mi NNE 13.8 mph - 0.00 in Snow Light Snow
3:35 PM 33.1 °F 26.9 °F 28.9 °F 85% 30.22 in 3.0 mi NNE 6.9 mph - 0.01 in Snow Light Snow
3:53 PM 34.0 °F 29.8 °F 30.9 °F 89% 30.27 in 3.0 mi NE 4.6 mph - 0.01 in Snow Light Snow
4:36 PM 34.0 °F 24.2 °F 28.0 °F 79% 30.24 in 10.0 mi North 15.0 mph - 0.00 in   Overcast
4:50 PM 33.8 °F 23.9 °F 28.4 °F 81% 30.25 in 5.0 mi North 15.0 mph 19.6 mph 0.00 in Snow Light Snow
4:53 PM 32.0 °F 22.1 °F 28.9 °F 88% 30.30 in 3.0 mi North 13.8 mph - 0.00 in Snow Light Snow
4:58 PM 32.0 °F 21.2 °F 28.9 °F 88% 30.25 in 1.8 mi North 16.1 mph - 0.00 in Snow Light Snow
5:13 PM 32.0 °F 22.5 °F 30.0 °F 92% 30.26 in 3.0 mi NNE 12.7 mph - 0.00 in Snow Light Snow
5:27 PM 33.1 °F 22.6 °F 28.9 °F 85% 30.26 in 7.0 mi NNE 16.1 mph - 0.00 in Snow Light Snow
5:53 PM 32.0 °F 23.6 °F 28.9 °F 88% 30.32 in 4.0 mi NNE 10.4 mph - 0.00 in Snow Light Snow
6:53 PM 32.0 °F 25.6 °F 28.9 °F 88% 30.36 in 7.0 mi NNE 6.9 mph - 0.00 in Snow Light Snow
7:48 PM 32.0 °F 25.6 °F 26.6 °F 80% 30.33 in 10.0 mi NE 6.9 mph - 0.00 in   Overcast
7:53 PM 32.0 °F 24.2 °F 27.0 °F 82% 30.39 in 10.0 mi NE 9.2 mph - 0.00 in   Overcast
8:10 PM 32.0 °F 22.5 °F 25.0 °F 75% 30.33 in 10.0 mi NNE 12.7 mph - N/A   Overcast
8:53 PM 28.9 °F 21.9 °F 24.1 °F 82% 30.40 in 10.0 mi NE 6.9 mph - N/A   Mostly Cloudy
9:53 PM 26.1 °F - 21.9 °F 84% 30.43 in 10.0 mi Calm Calm - N/A   Clear
10:26 PM 25.0 °F 20.7 °F 23.0 °F 92% 30.37 in 10.0 mi NNW 3.5 mph - N/A   Mostly Cloudy
10:44 PM 25.0 °F - 21.9 °F 88% 30.37 in 10.0 mi Calm Calm - N/A   Scattered Clouds
10:53 PM 25.0 °F - 21.9 °F 88% 30.44 in 10.0 mi Calm Calm - N/A   Mostly Cloudy
11:53 PM 26.1 °F 21.9 °F 24.1 °F 92% 30.45 in 10.0 mi NW 3.5 mph - N/A   Overcast